Location: Aigremont
(47.7188°N, 3.8925°E)
Time: 06:43:08
(UTC+00:00)

CZ-4B R/B - Pass Details

Date: 18 February 2020
Orbit: 486 x 653 km, 97.9° (Epoch: 30 March)

Event Time Altitude Azimuth Distance (km) Brightness Sun altitude
Rises 05:12:47 0° 6° (N) 2,655 6.4 -16.4°
Reaches altitude 10° 05:15:01 10° 358° (N) 1,740 5.4 -16.0°
Maximum altitude 05:18:28 37° 291° (WNW) 790 3.1 -15.4°
Enters shadow 05:19:48 27° 246° (WSW) 982 3.6 -15.2°
